2024/01/29 00:00:00,69.7,-0.4
2024/01/29 00:10:00,69.6,-0.3
2024/01/29 00:20:00,69.5,-0.5
2024/01/29 00:30:00,69.5,-0.4
2024/01/29 00:40:00,69.4,-0.4
2024/01/29 00:50:00,69.3,-0.4
2024/01/29 01:00:00,69.4,-0.6
2024/01/29 01:10:00,69.4,-0.6
2024/01/29 01:20:00,69.5,-0.7
2024/01/29 01:30:00,69.5,-0.7
2024/01/29 01:40:00,69.5,-0.6
2024/01/29 01:50:00,69.4,-0.4
2024/01/29 02:00:00,69.4,-0.6
2024/01/29 02:10:00,69.3,-0.5
2024/01/29 02:20:00,69.3,-0.8
2024/01/29 02:30:00,69.3,-0.7
2024/01/29 02:40:00,69.3,-0.6
2024/01/29 02:50:00,69.2,-0.6
2024/01/29 03:00:00,69.0,-0.5
2024/01/29 03:10:00,69.0,-0.7
2024/01/29 03:20:00,69.1,-0.8
2024/01/29 03:30:00,69.0,-1.1
2024/01/29 03:40:00,68.9,-0.9
2024/01/29 03:50:00,68.9,-0.8
2024/01/29 04:00:00,68.8,-0.9
2024/01/29 04:10:00,68.8,-0.9
2024/01/29 04:20:00,68.8,-0.9
2024/01/29 04:30:00,68.7,-1.1
2024/01/29 04:40:00,68.6,-1.2
2024/01/29 04:50:00,68.6,-1.3
2024/01/29 05:00:00,68.5,-1.6
2024/01/29 05:10:00,68.5,-2.0
2024/01/29 05:20:00,68.4,-1.9
2024/01/29 05:30:00,68.3,-2.0
2024/01/29 05:40:00,68.3,-1.6
2024/01/29 05:50:00,68.3,-1.4
2024/01/29 06:00:00,68.2,-1.4
2024/01/29 06:10:00,68.2,-1.2
2024/01/29 06:20:00,68.2,-1.2
2024/01/29 06:30:00,68.2,-1.2
2024/01/29 06:40:00,68.1,-1.2
2024/01/29 06:50:00,68.1,-1.4
2024/01/29 07:00:00,68.1,-1.4
2024/01/29 07:10:00,68.1,-1.6
2024/01/29 07:20:00,68.0,-2.1
2024/01/29 07:30:00,67.9,-2.2
2024/01/29 07:40:00,67.9,-1.6
2024/01/29 07:50:00,67.8,-1.1
2024/01/29 08:00:00,67.8,-0.7
2024/01/29 08:10:00,67.8,-0.5
2024/01/29 08:20:00,67.7, 0.2
2024/01/29 08:30:00,67.6, 0.6
2024/01/29 08:40:00,67.5, 0.1
2024/01/29 08:50:00,67.5,-0.5
2024/01/29 09:00:00,67.5,-0.1
2024/01/29 09:10:00,67.4, 0.9
2024/01/29 09:20:00,67.4, 1.0
2024/01/29 09:30:00,67.3, 0.9
2024/01/29 09:40:00,67.3, 1.4
2024/01/29 09:50:00,67.3, 2.9
2024/01/29 10:00:00,67.2, 2.5
2024/01/29 10:10:00,67.0, 2.9
2024/01/29 10:20:00,66.7, 5.6
2024/01/29 10:30:00,65.7, 8.4
2024/01/29 10:40:00,64.9,10.1
2024/01/29 10:50:00,65.1,10.2
2024/01/29 11:00:00,64.8,12.2
2024/01/29 11:10:00,64.4,10.9
2024/01/29 11:20:00,64.8, 9.6
2024/01/29 11:30:00,64.2, 9.8
2024/01/29 11:40:00,64.6,11.1
2024/01/29 11:50:00,64.6,10.8
2024/01/29 12:00:00,64.7,12.5
2024/01/29 12:10:00,64.8,13.0
2024/01/29 12:20:00,64.7,10.4
2024/01/29 12:30:00,64.8, 8.0
2024/01/29 12:40:00,64.4,10.1
2024/01/29 12:50:00,64.3, 8.7
2024/01/29 13:00:00,63.9, 8.5
2024/01/29 13:10:00,63.7, 8.1
2024/01/29 13:20:00,63.4, 8.2
2024/01/29 13:30:00,63.4, 7.2
2024/01/29 13:40:00,63.4, 6.5
2024/01/29 13:50:00,63.3, 6.4
2024/01/29 14:00:00,63.4, 6.0
2024/01/29 14:10:00,63.1, 7.0
2024/01/29 14:20:00,62.5,11.1
2024/01/29 14:30:00,62.4,10.8
2024/01/29 14:40:00,62.2,12.0
2024/01/29 14:50:00,62.3,10.9
2024/01/29 15:00:00,62.1, 9.3
2024/01/29 15:10:00,62.0,12.0
2024/01/29 15:20:00,61.8,13.1
2024/01/29 15:30:00,61.7,12.4
2024/01/29 15:40:00,61.6,11.8
2024/01/29 15:50:00,61.7,11.0
2024/01/29 16:00:00,61.6,10.6
2024/01/29 16:10:00,61.6, 7.6
2024/01/29 16:20:00,61.7, 5.0
2024/01/29 16:30:00,61.7, 4.5
2024/01/29 16:40:00,61.6, 6.5
2024/01/29 16:50:00,61.6, 4.3
2024/01/29 17:00:00,61.7, 3.5
2024/01/29 17:10:00,61.6, 2.8
2024/01/29 17:20:00,61.5, 2.1
2024/01/29 17:30:00,61.4, 1.9
2024/01/29 17:40:00,61.3, 1.6
2024/01/29 17:50:00,61.2, 1.4
2024/01/29 18:00:00,61.2, 1.3
2024/01/29 18:10:00,61.2, 1.6
2024/01/29 18:20:00,61.1, 1.2
2024/01/29 18:30:00,61.1, 1.2
2024/01/29 18:40:00,61.0, 1.2
2024/01/29 18:50:00,60.9, 1.3
2024/01/29 19:00:00,60.9, 1.1
2024/01/29 19:10:00,60.9, 1.4
2024/01/29 19:20:00,60.8, 1.2
2024/01/29 19:30:00,60.8, 1.0
2024/01/29 19:40:00,60.8, 1.0
2024/01/29 19:50:00,60.8, 0.8
2024/01/29 20:00:00,60.7, 1.1
2024/01/29 20:10:00,60.7, 1.0
2024/01/29 20:20:00,60.7, 1.2
2024/01/29 20:30:00,60.7, 1.1
2024/01/29 20:40:00,60.5, 1.0
2024/01/29 20:50:00,60.5, 1.1
2024/01/29 21:00:00,60.4, 0.7
2024/01/29 21:10:00,60.4, 0.5
2024/01/29 21:20:00,60.4, 0.1
2024/01/29 21:30:00,60.3, 0.4
2024/01/29 21:40:00,60.3, 0.5
2024/01/29 21:50:00,60.3, 0.2
2024/01/29 22:00:00,60.2,-0.4
2024/01/29 22:10:00,60.1,-0.2
2024/01/29 22:20:00,60.1,-0.6
2024/01/29 22:30:00,60.2,-0.3
2024/01/29 22:40:00,60.1,-0.6
2024/01/29 22:50:00,60.0,-0.7
2024/01/29 23:00:00,60.0,-0.7
2024/01/29 23:10:00,60.0,-0.4
2024/01/29 23:20:00,60.0,-0.5
2024/01/29 23:30:00,60.0,-0.6
2024/01/29 23:40:00,59.9,-0.2
2024/01/29 23:50:00,59.8,-0.2
